User: anonymous   Login
Location: Bagnara
(41.0500°N, 14.7833°E)
Time: 10:02:58
(UTC+00:00)
Language:

Resurs 1-4 Rocket - Orbit

View from above orbital plane
View from above orbital plane
View from above satellite
View from above satellite

Ground track
Ground track

The orbit data is extracted from the following two-line orbital elements,

1 25400U 98043G   21260.52480690 -.00000016  00000-0  11862-4 0  9990
2 25400  98.6428 195.0305 0011059  83.9525 276.2914 14.25482400206369
Epoch (UTC): 17 September 2021 12:35:43
Eccentricity: 0.0011059
inclination: 98.6428°
perigee height: 799 km
apogee height: 815 km
right ascension of ascending node: 195.0305°
argument of perigee: 83.9525°
revolutions per day: 14.25482400
mean anomaly at epoch: 276.2914°
orbit number at epoch: 20636

The dashed part of the orbit path shows where the satellite is in the earth's shadow,  

DLR